Window Rock, AZ

10:12 PM MDT on October 17, 2019 (GMT -0600)
Window Rock

Weather History for KRQE - September, 2019

Change the Weather History Date:

Thursday, September 19, 2019

  Actual Average Record
Temperature  
Mean Temperature 56 °F -  
Max Temperature 64 °F 75 °F 90 °F (1952)
Min Temperature 46 °F 42 °F 25 °F (1971)
Degree Days  
Heating Degree Days 9    
Growing Degree Days 6 (Base 50)    
Moisture  
Dew Point 38 °F    
Average Humidity 55    
Maximum Humidity 79    
Minimum Humidity 37    
Precipitation  
Precipitation 0.00 in - - ()
Sea Level Pressure  
Sea Level Pressure 30.04 in    
Wind  
Wind Speed 7 mph (SSW)    
Max Wind Speed 20 mph    
Max Gust Speed 26 mph    
Visibility 10 miles    
Events      
Averages and records for this station are not official NWS values.
T = Trace of Precipitation, MM = Missing Value Source: NWS Daily Summary

Daily Weather History Graph

Daily Weather History Graph

Search for Another Location

Airport or City:

Astronomy

Sep. 19, 2019 Rise Set
Actual Time 7:01 AM MDT 7:17 PM MDT
Civil Twilight 6:36 AM MDT 7:43 PM MDT
Nautical Twilight 6:06 AM MDT 8:13 PM MDT
Astronomical Twilight 5:36 AM MDT 8:43 PM MDT
Moon 10:39 PM MDT (9/19) 11:58 AM MDT (9/19)
Length of Visible Light 13h 06m
Length of Day
12h 15m
Waning Gibbous, 74% of the Moon is Illuminated
Sep 19
Waning Gibbous
Sep 21
Last Quarter
Sep 28
New
Oct 5
First Quarter
Oct 13
Full

Hourly Weather History & Observations

Time (MDT) Temp. Dew Point Humidity Pressure Visibility Wind Dir Wind Speed Gust Speed Precip Events Conditions
12:53 AM 64.0 °F 37.0 °F 37% 29.83 in 10.0 mi West 9.2 mph - N/A   Clear
1:53 AM 64.0 °F 37.0 °F 37% 29.82 in 10.0 mi WSW 9.2 mph - N/A   Clear
2:53 AM 55.0 °F 37.9 °F 53% 29.85 in 10.0 mi East 3.5 mph - N/A   Clear
3:53 AM 48.9 °F 39.9 °F 71% 29.88 in 10.0 mi Calm Calm - N/A   Clear
5:53 AM 46.0 °F 39.9 °F 79% 29.88 in 10.0 mi Calm Calm - N/A   Clear
6:53 AM - - N/A% 30.19 in 10.0 mi Calm Calm - N/A   Partly Cloudy
7:53 AM - - N/A% 30.19 in 10.0 mi Calm Calm - N/A   Clear
8:53 AM - - N/A% 30.19 in 10.0 mi Calm Calm - N/A   Scattered Clouds
9:53 AM - - N/A% 30.19 in 10.0 mi Calm Calm - N/A   Clear
10:53 AM - - N/A% 30.18 in 10.0 mi South 12.7 mph - N/A   Clear
11:53 AM - - N/A% 30.16 in 10.0 mi South 13.8 mph 20.7 mph N/A   Scattered Clouds
12:53 PM - - N/A% 30.14 in 10.0 mi SSW 13.8 mph 23.0 mph N/A   Mostly Cloudy
1:53 PM - - N/A% 30.11 in 10.0 mi SSW 17.3 mph 25.3 mph N/A   Mostly Cloudy
2:53 PM - - N/A% 30.08 in 10.0 mi SSW 19.6 mph 26.5 mph N/A   Scattered Clouds
3:53 PM - - N/A% 30.05 in 10.0 mi SSW 10.4 mph 24.2 mph N/A   Mostly Cloudy
4:53 PM - - N/A% 30.04 in 10.0 mi South 10.4 mph 25.3 mph N/A   Partly Cloudy
5:53 PM - - N/A% 30.03 in 10.0 mi South 9.2 mph 20.7 mph N/A   Mostly Cloudy
6:53 PM - - N/A% 30.02 in 10.0 mi SW 12.7 mph 23.0 mph N/A   Mostly Cloudy
7:53 PM - - N/A% 30.03 in 10.0 mi North - - N/A   Clear
8:53 PM - - N/A% 30.04 in 10.0 mi South 6.9 mph - N/A   Clear
9:53 PM - - N/A% 30.04 in 10.0 mi South 6.9 mph - N/A   Clear
10:53 PM - - N/A% 30.04 in 10.0 mi South 6.9 mph - N/A   Clear
11:53 PM - - N/A% 30.05 in 10.0 mi South 8.1 mph - N/A   Clear